Location: Eppenbrunn
(49.1158°N, 7.5601°E)
Time: 06:57:03
(UTC+00:00)

STARLINK-1205 - Visible Passes

Search period start: 11 August 2020 00:00
Search period end: 21 August 2020 00:00
Orbit: 549 x 550 km, 53.0° (Epoch: 11 August)

Date Brightness Start Highest point End Pass type
(mag) Time Alt. Az. Time Alt. Az. Time Alt. Az.
11 Aug 3.9 20:26:01 10° WNW 20:30:08 64° NNE 20:33:05 18° E visible
11 Aug 4.6 22:05:43 10° WNW 22:08:43 36° WSW 22:08:43 36° WSW visible
12 Aug 3.7 20:20:31 10° WNW 20:24:40 73° NNE 20:27:28 20° ESE visible
12 Aug 4.9 22:00:19 10° WNW 22:03:05 29° WSW 22:03:05 29° WSW visible
13 Aug 3.6 20:15:01 10° WNW 20:19:11 84° NNE 20:21:53 21° ESE visible
13 Aug 5.2 21:54:57 10° W 21:57:30 24° WSW 21:57:30 24° WSW visible
14 Aug 3.6 20:09:31 10° WNW 20:13:41 82° SSW 20:16:20 21° ESE visible
14 Aug 5.5 21:49:41 10° W 21:51:58 20° WSW 21:51:58 20° WSW visible
15 Aug 3.7 20:04:01 10° WNW 20:08:09 68° SSW 20:10:49 21° SE visible
15 Aug 5.8 21:44:32 10° W 21:46:27 16° WSW 21:46:27 16° WSW visible
16 Aug 4.0 19:58:31 10° WNW 20:02:35 55° SSW 20:05:21 19° SE visible
16 Aug 6.1 21:39:43 10° WSW 21:41:00 12° WSW 21:41:00 12° WSW visible
17 Aug 4.3 19:53:03 10° WNW 19:57:00 44° SW 19:59:57 16° SSE visible
18 Aug 4.7 19:47:36 10° WNW 19:51:24 35° SW 19:54:35 13° SSE visible
19 Aug 5.1 19:42:13 10° W 19:45:46 28° SW 19:49:18 10° SSE visible
20 Aug 5.5 19:36:54 10° W 19:40:06 22° SW 19:43:18 10° S visible
